Regional Weather Roundup
Issued by NWS Kansas City/Pleasant Hill, MO

Home | Current Version | Previous Version | Text Only | Print | Product List | Glossary On
Versions: 1 2 3 4 5 6 7 8 9 10 11 12 13 14 15 16 17 18 19 20 21 22 23 24 25 26 27 28 29 30 31 32 33 34 35 36 37 38 39 40 41 42 43 44 45 46 47 48 49 50
000
ASUS43 KEAX 241104
RWREAX

WEATHER ROUNDUP FOR EASTERN KANSAS AND NORTHWEST MISSOURI
NATIONAL WEATHER SERVICE KANSAS CITY/PLEASANT HILL MO
600 AM CDT THU JUL 24 2014

KSZ040-057-103>105-MOZ028-029-037-043-241200-
...KANSAS CITY METROPOLITAN AREA...

CITY           SKY/WX    TMP DP  RH WIND       PRES   REMARKS
K.C. INTL      CLEAR     67  59  75 E8        30.14R
K.C. DOWNTOWN  CLEAR     68  60  75 E7        30.13R
LEES SUMMIT    CLEAR     64  60  87 E5        30.14R
OLATHE - IXD   CLEAR     65  60  84 E5        30.14R
OLATHE - OJC   CLEAR     65  60  84 E7        30.13R
LAWRENCE       CLEAR     64  60  87 E5        30.13R

$$

MOZ001>008-011>017-020>025-030>033-038>040-044>046-053-054-241200-
...NORTHERN AND CENTRAL MISSOURI...

CITY           SKY/WX    TMP DP  RH WIND       PRES   REMARKS
ST. JOSEPH     CLEAR     66  59  78 E5        30.14R
MOSBY          SUNNY     61  61 100 CALM      30.14R
WHITEMAN AFB   CLEAR     60  52  75 NE2       30.13R
CLINTON        CLEAR     64  61  88 CALM      30.13R
SEDALIA        CLEAR     62  58  86 NE5       30.14R
WARSAW         NOT AVBL
MARSHALL       CLEAR     64  63  94 E3        30.16R
CHILLICOTHE      N/A     60  57  89 CALM      30.16R
KIRKSVILLE     CLEAR     56  54  93 CALM      30.16S

$$

MOZ041-047>049-056>058-063>065-088>090-097-241200-
...EASTERN AND SOUTHERN MISSOURI...

CITY           SKY/WX    TMP DP  RH WIND       PRES   REMARKS
ST. LOUIS INTL CLEAR     62  52  69 N5        30.13R
SPIRIT OF STL  CLEAR     55  52  89 CALM      30.12R
COLUMBIA       CLEAR     60  58  92 NE8       30.14R
JEFFERSON CITY CLEAR     61  58  90 CALM      30.13R
HANNIBAL       CLEAR     59  55  88 CALM      30.16R
ROLLA          CLEAR     60  56  86 E5        30.12R
OSAGE BEACH    CLEAR     63  57  82 CALM      30.13R
SPRINGFIELD    CLEAR     67  64  90 E5        30.11R
BRANSON        CLOUDY    68  66  94 E7        30.11R
NEVADA         CLEAR     63  61  94 NE5       30.13R
JOPLIN         CLEAR     67  64  90 N6        30.10R
WEST PLAINS    PTCLDY    63  58  83 NE7       30.12R
MALDEN         PTCLDY    64  55  72 N7        30.07R

$$

IAZ060-094-KSZ022-034>040-054-083-096-NEZ052-066-093-241200-
...KANSAS...SOUTHEAST NEBRASKA AND IOWA...

CITY           SKY/WX    TMP DP  RH WIND       PRES   REMARKS
TOPEKA         CLEAR     66  62  87 CALM      30.13R
MANHATTAN      CLEAR     67  63  87 CALM      30.12R
EMPORIA        CLEAR     64  62  93 E7        30.11R
CHANUTE        PTCLDY    68  63  84 E9        30.10R
WICHITA        PTCLDY    70  64  81 E6        30.09S
OMAHA          PTCLDY    66  58  75 SE7       30.14R
LINCOLN        CLEAR     68  59  73 SE6       30.13S
FALLS CITY     CLEAR     64  60  87 SE3       30.13R
LAMONI         CLEAR     60  58  92 CALM      30.16R
DES MOINES     CLEAR     64  58  80 CALM      30.15R

$$



USA.gov is the U.S. government's official web portal to all federal, state and local government web resources and services.